FW6122 Weather Reports


Display with metric or nautical units.
time (UTC)temp
F
wind
direction
speed
MPH
gust
MPH
rain 1hr
in
rain 24hr
in
rain mn
in
humidity
%
barometer
mb
20260504024544 41 169 5.0 9.0 0.00 0.00 0.00 86 1007.2
20260504023032 42 190 4.0 9.0 0.00 0.00 0.00 86 1007.3
20260504021528 43 183 5.0 8.0 0.00 0.00 0.00 83 1007.3
20260504020025 44 162 5.0 10.0 0.00 0.00 0.00 82 1006.9
20260504014520 45 219 4.0 13.0 0.00 0.00 0.00 80 1007.0
20260504013018 47 182 5.0 9.0 0.00 0.00 0.00 77 1006.6
20260504011513 49 182 3.0 10.0 0.00 0.00 0.00 72 1006.7
20260504010011 50 126 4.0 10.0 0.00 0.00 0.00 70 1006.5
20260504004515 51 176 4.0 7.0 0.00 0.00 0.00 67 1006.7
20260504003006 51 186 5.0 10.0 0.00 0.00 0.00 66 1006.9
20260504001504 53 208 4.0 16.0 0.00 0.00 0.00 64 1006.9
20260504000003 56 181 4.0 9.0 0.00 0.00 0.00 59 1007.1
20260503234502 56 220 4.0 9.0 0.00 0.00 0.00 59 1006.7
20260503233100 57 223 3.0 10.0 0.00 0.00 0.00 57 1006.9
20260503231600 58 163 3.0 16.0 0.00 0.00 0.00 57 1007.0
20260503230108 58 171 4.0 10.0 0.00 0.00 0.00 56 1007.1
20260503224557 59 192 4.0 9.0 0.00 0.00 0.00 60 1006.9
20260503223059 61 168 4.0 10.0 0.00 0.00 0.00 53 1007.0
20260503221556 61 184 3.0 11.0 0.00 0.00 0.00 52 1007.2
20260503220058 62 173 4.0 11.0 0.00 0.00 0.00 49 1007.6
20260503214549 62 196 4.0 8.0 0.00 0.00 0.00 50 1007.8
20260503213053 63 194 4.0 10.0 0.00 0.00 0.00 47 1007.9
20260503211548 62 250 4.0 9.0 0.00 0.00 0.00 46 1007.9
20260503210046 60 184 3.0 9.0 0.00 0.00 0.00 60 1007.9
20260503204546 62 238 4.0 9.0 0.00 0.00 0.00 58 1007.9
20260503203042 63 189 4.0 10.0 0.00 0.00 0.00 53 1008.1
20260503201539 63 234 4.0 11.0 0.00 0.00 0.00 53 1008.4
20260503200037 65 188 4.0 10.0 0.00 0.00 0.00 38 1008.7
20260503194541 64 239 3.0 8.0 0.00 0.00 0.00 37 1008.8
20260503193040 64 212 3.0 11.0 0.00 0.00 0.00 35 1009.0
20260503191533 64 184 3.0 9.0 0.00 0.00 0.00 33 1009.3
20260503190040 65 167 3.0 8.0 0.00 0.00 0.00 30 1009.5
20260503184530 65 155 3.0 8.0 0.00 0.00 0.00 32 1009.6
20260503183029 64 186 4.0 9.0 0.00 0.00 0.00 31 1009.8
20260503181530 63 165 4.0 12.0 0.00 0.00 0.00 30 1009.9
20260503180029 64 186 3.0 12.0 0.00 0.00 0.00 30 1009.9
20260503174528 64 214 3.0 6.0 0.00 0.00 0.00 30 1010.1
20260503173025 63 119 3.0 7.0 0.00 0.00 0.00 29 1010.2
20260503171523 63 173 2.0 7.0 0.00 0.00 0.00 32 1010.0
20260503140103 51 192 0.0 2.0 0.00 0.00 0.00 40 1009.2
20260503081534 55 203 1.0 3.0 0.00 0.00 0.00 31 1011.3
20260503071504 53 205 0.0 0.0 0.00 0.00 0.00 34 1012.0
20260503054558 55 200 1.0 2.0 0.00 0.00 0.00 34 1013.0
20260503053058 55 200 1.0 2.0 0.00 0.00 0.00 34 1012.9
20260503051558 55 200 0.0 2.0 0.00 0.00 0.00 34 1012.7
20260503050100 54 200 0.0 0.0 0.00 0.00 0.00 35 1012.6
20260503044556 53 200 0.0 1.0 0.00 0.00 0.00 37 1012.5
20260503043056 54 200 0.0 1.0 0.00 0.00 0.00 38 1012.4
20260503041556 54 200 0.0 0.0 0.00 0.00 0.00 36 1012.3
20260503040059 54 200 0.0 0.0 0.00 0.00 0.00 35 1012.1
20260503034608 55 200 0.0 0.0 0.00 0.00 0.00 37 1012.1
20260503033057 55 200 0.0 0.0 0.00 0.00 0.00 37 1011.8
20260503031555 55 200 0.0 0.0 0.00 0.00 0.00 37 1011.7
20260503030053 56 200 0.0 0.0 0.00 0.00 0.00 45 1011.7